Volver al catálogo

SL-12 R/B(2)

ActivoGEO
NORAD 13900·ROCKET BODY·🇷🇺 Russia

Lanzado Feb 21, 1979 desde Baikonur Cosmodrome

Loading…

TLE

ActualizadoSource: Space-Track

Época: Sep 14, 2026, 08:33 UTC

1 13900U 79015D   26257.35627838 -.00000033  00000-0  00000-0 0  9996
2 13900   4.1556 275.8348 0011016 331.5579 208.6193  1.01339567127953

Sigue SL-12 R/B(2) en tiempo real con AllMySat

Download on the App Store